Location: Linz
(48.3300°N, 14.3000°E)
Time: 13:04:24
(UTC+02:00)

Tiangong 2 - Visible Passes

Search period start: 18 July 2018 00:00
Search period end: 28 July 2018 00:00
Orbit: 386 x 394 km, 42.8° (Epoch: 18 July)

Date Brightness Start Highest point End Pass type
(mag) Time Alt. Az. Time Alt. Az. Time Alt. Az.
18 Jul 2.2 21:47:15 10° WSW 21:50:05 29° S 21:52:44 11° SE visible
18 Jul 3.5 23:24:21 10° WSW 23:25:03 13° SW 23:25:03 13° SW visible
19 Jul 2.7 22:26:26 10° WSW 22:28:55 21° SSW 22:29:45 19° S visible
20 Jul 2.5 21:28:41 10° WSW 21:31:23 25° S 21:34:04 10° SE visible
20 Jul 3.7 23:06:46 10° SW 23:06:46 10° SW 23:06:46 10° SW visible
21 Jul 3.2 22:08:11 10° WSW 22:10:08 15° SSW 22:11:29 12° S visible
